Regional Weather Roundup
Issued by NWS Green Bay, WI

Home | Current Version | Previous Version | Graphics & Text | Print | Product List | Glossary Off
Versions: 1 2 3 4 5 6 7 8 9 10 11 12 13 14 15 16 17 18 19 20 21 22 23 24 25 26 27 28 29 30 31 32 33 34 35 36 37 38 39 40 41 42 43 44 45 46 47 48 49 50

000
ASUS43 KGRB 281411
RWRGRB

NORTH-CENTRAL AND NORTHEAST WISCONSIN REGIONAL WEATHER ROUNDUP
NATIONAL WEATHER SERVICE GREEN BAY WI
900 AM CDT THU APR 28 2016

WIZ005-009-010>012-018-019-281500-
NORTH CENTRAL WISCONSIN

CITY           SKY/WX    TMP DP  RH WIND       PRES   REMARKS
IRONWOOD       PTSUNNY   39  19  45 E12       30.02S
MANITOWISH WTR CLOUDY    40  19  41 E8        30.01S
ARBOR VITAE    CLOUDY    42  21  44 E5        30.00F
EAGLE RIVER    FAIR      39  18  42 E8        30.01F
LAND O LAKES   CLOUDY    40  20  43 E7        30.03S
RHINELANDER    CLOUDY    40  19  43 E13       30.01S
PHILLIPS       CLOUDY    42  20  41 E9        29.98R
ANTIGO         CLOUDY    40  21  46 E15G21    29.98S
TOMAHAWK       CLOUDY    41  20  43 E8        30.00R
MERRILL        PTSUNNY   43  21  42 E8G17     29.98S
$$

WIZ013-073-281500-
NORTHEAST WISCONSIN

CITY           SKY/WX    TMP DP  RH WIND       PRES   REMARKS
IRON MOUNTAIN  FAIR      41  22  46 VRB7      30.04S
MARINETTE      FAIR      39  32  75 E18       30.04S
OCONTO         FAIR      42  29  59 NE10G17   30.01F
$$

WIZ017-030-035>037-045-281500-
CENTRAL WISCONSIN

CITY           SKY/WX    TMP DP  RH WIND       PRES   REMARKS
MEDFORD        CLOUDY    40  22  47 E14       29.94S
WAUSAU         CLOUDY    43  22  43 E13       29.95R
MOSINEE        CLOUDY    39  23  52 E10       29.96R
MARSHFIELD     CLOUDY    40  26  57 E12       29.93R
WISC RAPIDS    LGT RAIN  40  25  55 E13G20    29.95R
STEVENS POINT  CLOUDY    38  25  60 E12G18    29.95R
WAUPACA        CLOUDY    42  32  67 E9        29.96S
SHAWANO        CLOUDY    42  31  64 E13       30.00S
CLINTONVILLE   CLOUDY    41  30  65 E12       29.98S
WAUTOMA        NOT AVBL
$$

WIZ038-039-048-051-281500-
FOX VALLEY

CITY           SKY/WX    TMP DP  RH WIND       PRES   REMARKS
NWS GREEN BAY  CLOUDY    43  28  55 NE13      29.99S
APPLETON       CLOUDY    39  28  65 E12       29.95R
OSHKOSH        CLOUDY    44  23  43 E17G23    29.94S
FOND DU LAC    LGT RAIN  43  26  51 E15       29.94R
$$

WIZ022-050-052-281500-
EAST CENTRAL WISCONSIN

CITY           SKY/WX    TMP DP  RH WIND       PRES   REMARKS
EPHRAIM        FAIR      41  30  65 E10G17    30.03R
STURGEON BAY   PTSUNNY   39  28  65 NE12      30.04R
MANITOWOC      LGT RAIN  41  30  65 E14       29.99S
SHEBOYGAN      LGT RAIN  40  29  64 E10       29.98R
$$

LMZ563-521-522-541>543-281500-
LAKESHORE

STATION/POSITION TIME  TEMP    WIND        PRES    VSBY  WAVE
                       AIR SEA DIR/SP/G                  HT/PER
                 (UTC) (F)     (DEG/KT/KT) (MB)    (MI)  (FT/S)
SHEBOYGAN LKSHOR 1400   40     110/ 14/ 15 1016.0R
KEWAUNEE LKSHORE 1300   40      50/ 13/ 17 1015.0R
ALGOMA MARINA    1345           60/ 21/ 25   N/A
NORTHPORT PIER   1300   39      60/ 13/ 17 1017.6S
N MID LAKE BUOY  1350   39 38   80/ 19/ 21 1017.3F         2/ 3
CHAMBERS ISLAND  1300   39      40/ 10/ 13 1017.3S
MENOMINEE LKSHOR 1300   39      40/ 14/ 17 1016.0R
$$



USA.gov is the U.S. government's official web portal to all federal, state and local government web resources and services.